Time,TemperatureF,DewpointF,PressureIn,WindDirection,WindDirectionDegrees,WindSpeedMPH,WindSpeedGustMPH,Humidity,HourlyPrecipIn,Conditions,Clouds,dailyrainin,SoftwareType,DateUTC
2013-02-04 00:02:00,13.6,11.5,30.11,WSW,258,0.0,0.0,91,0.00,,,0.00,VWS V14.01,2013-02-04 05:02:00,
2013-02-04 00:03:00,13.5,11.4,30.11,WSW,258,0.0,0.0,91,0.00,,,0.00,VWS V14.01,2013-02-04 05:03:00,
2013-02-04 00:04:00,13.5,11.4,30.11,WSW,258,0.0,0.0,91,0.00,,,0.00,VWS V14.01,2013-02-04 05:04:00,
2013-02-04 00:09:00,13.3,11.2,30.11,WSW,258,0.0,0.0,91,0.00,,,0.00,VWS V14.01,2013-02-04 05:09:00,
2013-02-04 00:14:00,13.2,11.1,30.11,WSW,258,0.0,0.0,91,0.00,,,0.00,VWS V14.01,2013-02-04 05:14:00,
2013-02-04 00:19:00,13.0,10.9,30.11,WSW,258,0.0,0.0,91,0.00,,,0.00,VWS V14.01,2013-02-04 05:19:00,
2013-02-04 00:24:00,12.9,10.8,30.11,WSW,258,0.0,0.0,91,0.00,,,0.00,VWS V14.01,2013-02-04 05:24:00,
2013-02-04 00:29:00,12.8,10.7,30.11,WSW,258,0.0,0.0,91,0.00,,,0.00,VWS V14.01,2013-02-04 05:29:00,
2013-02-04 00:34:00,12.7,10.6,30.11,WSW,258,0.0,0.0,91,0.00,,,0.00,VWS V14.01,2013-02-04 05:34:00,
2013-02-04 00:39:00,12.6,10.5,30.11,WSW,258,0.0,0.0,91,0.00,,,0.00,VWS V14.01,2013-02-04 05:39:00,
2013-02-04 00:44:00,12.5,10.4,30.11,WSW,258,0.0,0.0,91,0.00,,,0.00,VWS V14.01,2013-02-04 05:44:00,
2013-02-04 00:49:00,12.5,10.6,30.10,WSW,258,0.0,0.0,92,0.00,,OVC065,0.00,VWS V14.01,2013-02-04 05:49:00,
2013-02-04 00:55:00,12.5,10.6,30.11,WSW,258,0.0,0.0,92,0.00,,OVC065,0.00,VWS V14.01,2013-02-04 05:55:00,
2013-02-04 01:00:00,12.4,10.5,30.11,WSW,258,0.0,0.0,92,0.00,,OVC065,0.00,VWS V14.01,2013-02-04 06:00:00,
2013-02-04 01:05:00,12.3,10.4,30.10,WSW,258,0.0,0.0,92,0.00,,OVC065,0.00,VWS V14.01,2013-02-04 06:05:00,
2013-02-04 01:10:00,12.3,10.4,30.10,WSW,258,0.0,0.0,92,0.00,,OVC065,0.00,VWS V14.01,2013-02-04 06:10:00,
2013-02-04 01:15:00,12.5,10.6,30.10,WSW,258,0.0,0.0,92,0.00,,OVC065,0.00,VWS V14.01,2013-02-04 06:15:00,
2013-02-04 01:20:00,12.6,11.0,30.10,WSW,258,0.0,0.0,93,0.00,,OVC065,0.00,VWS V14.01,2013-02-04 06:20:00,
2013-02-04 01:25:00,12.8,11.2,30.10,WSW,258,0.0,0.0,93,0.00,,OVC065,0.00,VWS V14.01,2013-02-04 06:25:00,
2013-02-04 01:30:00,12.8,11.2,30.10,WSW,258,0.0,0.0,93,0.00,,OVC065,0.00,VWS V14.01,2013-02-04 06:30:00,
2013-02-04 01:35:00,12.8,10.9,30.10,WSW,258,0.0,0.0,92,0.00,,OVC065,0.00,VWS V14.01,2013-02-04 06:35:00,
2013-02-04 01:40:00,12.7,10.8,30.10,WSW,258,0.0,0.0,92,0.00,,OVC065,0.00,VWS V14.01,2013-02-04 06:40:00,
2013-02-04 01:46:00,12.6,10.7,30.10,WSW,258,0.0,0.0,92,0.00,,OVC060,0.00,VWS V14.01,2013-02-04 06:46:00,
2013-02-04 01:51:00,12.5,10.6,30.10,WSW,258,0.0,0.0,92,0.00,,OVC060,0.00,VWS V14.01,2013-02-04 06:51:00,
2013-02-04 01:56:00,12.4,10.5,30.10,WSW,258,0.0,0.0,92,0.00,,OVC060,0.00,VWS V14.01,2013-02-04 06:56:00,
2013-02-04 02:01:00,12.3,10.4,30.10,WSW,258,0.0,0.0,92,0.00,,OVC060,0.00,VWS V14.01,2013-02-04 07:01:00,
2013-02-04 02:06:00,12.2,10.3,30.10,WSW,258,0.0,0.0,92,0.00,,OVC060,0.00,VWS V14.01,2013-02-04 07:06:00,
2013-02-04 02:11:00,12.2,10.3,30.10,WSW,258,0.0,0.0,92,0.00,,OVC060,0.00,VWS V14.01,2013-02-04 07:11:00,
2013-02-04 02:16:00,12.2,10.3,30.10,WSW,258,0.0,0.0,92,0.00,,OVC060,0.00,VWS V14.01,2013-02-04 07:16:00,
2013-02-04 02:21:00,12.2,10.3,30.10,WSW,258,0.0,0.0,92,0.00,,OVC060,0.00,VWS V14.01,2013-02-04 07:21:00,
2013-02-04 02:26:00,12.1,10.2,30.10,WSW,258,0.0,0.0,92,0.00,,OVC060,0.00,VWS V14.01,2013-02-04 07:26:00,
2013-02-04 02:31:00,12.2,10.3,30.10,WSW,258,0.0,0.0,92,0.00,,OVC060,0.00,VWS V14.01,2013-02-04 07:31:00,
2013-02-04 02:36:00,12.2,10.3,30.10,WSW,258,0.0,0.0,92,0.00,,OVC060,0.00,VWS V14.01,2013-02-04 07:36:00,
2013-02-04 02:42:00,12.2,10.3,30.10,WSW,258,0.0,0.0,92,0.00,,OVC060,0.00,VWS V14.01,2013-02-04 07:42:00,
2013-02-04 02:47:00,12.2,10.3,30.10,WSW,258,0.0,0.0,92,0.00,,BKN050,0.00,VWS V14.01,2013-02-04 07:47:00,
2013-02-04 02:52:00,12.3,10.4,30.10,WSW,258,0.0,0.0,92,0.00,,BKN050,0.00,VWS V14.01,2013-02-04 07:52:00,
2013-02-04 02:57:00,12.3,10.4,30.10,WSW,258,0.0,0.0,92,0.00,,BKN050,0.00,VWS V14.01,2013-02-04 07:57:00,
2013-02-04 03:02:00,12.3,10.4,30.09,WSW,258,0.0,0.0,92,0.00,,BKN050,0.00,VWS V14.01,2013-02-04 08:02:00,
2013-02-04 03:07:00,12.5,10.6,30.10,WSW,258,0.0,1.0,92,0.00,,BKN050,0.00,VWS V14.01,2013-02-04 08:07:00,
2013-02-04 03:12:00,12.7,11.1,30.09,WSW,258,0.0,1.0,93,0.00,,BKN050,0.00,VWS V14.01,2013-02-04 08:12:00,
2013-02-04 03:17:00,12.9,11.3,30.09,WSW,258,0.0,1.0,93,0.00,,BKN050,0.00,VWS V14.01,2013-02-04 08:17:00,
2013-02-04 03:22:00,13.1,11.5,30.09,WSW,258,0.0,1.0,93,0.00,,BKN050,0.00,VWS V14.01,2013-02-04 08:22:00,
2013-02-04 03:27:00,13.3,11.7,30.10,WSW,258,0.0,1.0,93,0.00,,BKN050,0.00,VWS V14.01,2013-02-04 08:27:00,
2013-02-04 03:32:00,13.4,11.8,30.10,WSW,258,0.0,0.0,93,0.00,,BKN050,0.00,VWS V14.01,2013-02-04 08:32:00,
2013-02-04 03:38:00,13.6,12.0,30.09,WSW,258,0.0,0.0,93,0.00,,BKN050,0.00,VWS V14.01,2013-02-04 08:38:00,
2013-02-04 03:43:00,14.1,12.7,30.09,WSW,258,0.0,0.0,94,0.00,,BKN050,0.00,VWS V14.01,2013-02-04 08:43:00,
2013-02-04 03:48:00,15.0,13.6,30.09,WSW,258,0.0,1.0,94,0.00,,BKN048,0.00,VWS V14.01,2013-02-04 08:48:00,
2013-02-04 03:53:00,15.7,14.5,30.09,WSW,258,0.0,1.0,95,0.00,,BKN048,0.00,VWS V14.01,2013-02-04 08:53:00,
2013-02-04 03:58:00,16.2,15.0,30.09,WSW,258,1.0,1.0,95,0.00,,BKN048,0.00,VWS V14.01,2013-02-04 08:58:00,
2013-02-04 04:03:00,16.7,15.5,30.09,WSW,258,1.0,1.0,95,0.00,,BKN048,0.00,VWS V14.01,2013-02-04 09:03:00,
2013-02-04 04:08:00,17.1,15.9,30.09,WSW,258,0.0,1.0,95,0.00,,BKN048,0.00,VWS V14.01,2013-02-04 09:08:00,
2013-02-04 04:13:00,17.3,16.1,30.08,WSW,258,0.0,2.0,95,0.00,,BKN048,0.00,VWS V14.01,2013-02-04 09:13:00,
2013-02-04 04:18:00,17.6,16.2,30.09,WSW,258,0.0,2.0,94,0.00,,BKN048,0.00,VWS V14.01,2013-02-04 09:18:00,
2013-02-04 04:23:00,17.9,16.5,30.08,WSW,258,1.0,2.0,94,0.00,,BKN048,0.00,VWS V14.01,2013-02-04 09:23:00,
2013-02-04 04:28:00,18.1,16.7,30.08,WSW,258,0.0,2.0,94,0.00,,BKN048,0.00,VWS V14.01,2013-02-04 09:28:00,
2013-02-04 04:34:00,18.2,16.8,30.08,WSW,258,0.0,1.0,94,0.00,,BKN048,0.00,VWS V14.01,2013-02-04 09:34:00,
2013-02-04 04:39:00,18.2,16.8,30.08,WSW,258,0.0,2.0,94,0.00,,BKN048,0.00,VWS V14.01,2013-02-04 09:39:00,
2013-02-04 04:44:00,18.2,16.5,30.08,WSW,258,0.0,2.0,93,0.00,,BKN048,0.00,VWS V14.01,2013-02-04 09:44:00,
2013-02-04 04:49:00,18.2,16.5,30.08,WSW,258,0.0,2.0,93,0.00,,SCT049,0.00,VWS V14.01,2013-02-04 09:49:00,
2013-02-04 04:54:00,18.1,16.4,30.09,WSW,258,0.0,2.0,93,0.00,,SCT049,0.00,VWS V14.01,2013-02-04 09:54:00,
2013-02-04 04:59:00,18.2,16.5,30.08,WSW,258,1.0,2.0,93,0.00,,SCT049,0.00,VWS V14.01,2013-02-04 09:59:00,
2013-02-04 05:04:00,18.2,16.5,30.08,WSW,258,0.0,1.0,93,0.00,,SCT049,0.00,VWS V14.01,2013-02-04 10:04:00,
2013-02-04 05:09:00,18.2,16.5,30.08,WSW,258,0.0,1.0,93,0.00,,SCT049,0.00,VWS V14.01,2013-02-04 10:09:00,
2013-02-04 05:14:00,18.2,16.5,30.08,WSW,258,0.0,1.0,93,0.00,,SCT049,0.00,VWS V14.01,2013-02-04 10:14:00,
2013-02-04 05:19:00,18.1,16.4,30.08,WSW,258,0.0,1.0,93,0.00,,SCT049,0.00,VWS V14.01,2013-02-04 10:19:00,
2013-02-04 05:24:00,18.2,16.5,30.07,WSW,258,0.0,1.0,93,0.00,,SCT049,0.00,VWS V14.01,2013-02-04 10:24:00,
2013-02-04 05:29:00,18.2,16.5,30.08,WSW,258,0.0,1.0,93,0.00,,SCT049,0.00,VWS V14.01,2013-02-04 10:29:00,
2013-02-04 05:35:00,18.1,16.2,30.08,WSW,258,1.0,1.0,92,0.00,,SCT049,0.00,VWS V14.01,2013-02-04 10:35:00,
2013-02-04 05:40:00,18.2,16.5,30.08,WSW,258,0.0,1.0,93,0.00,,SCT049,0.00,VWS V14.01,2013-02-04 10:40:00,
2013-02-04 05:45:00,18.1,16.4,30.08,WSW,258,0.0,1.0,93,0.00,,SCT049,0.00,VWS V14.01,2013-02-04 10:45:00,
2013-02-04 05:50:00,18.1,16.4,30.07,WSW,258,1.0,1.0,93,0.00,,CLR,0.00,VWS V14.01,2013-02-04 10:50:00,
2013-02-04 05:55:00,18.1,16.4,30.07,WSW,258,0.0,1.0,93,0.00,,CLR,0.00,VWS V14.01,2013-02-04 10:55:00,
2013-02-04 06:00:00,18.2,16.5,30.07,WSW,258,0.0,1.0,93,0.00,,CLR,0.00,VWS V14.01,2013-02-04 11:00:00,
2013-02-04 06:05:00,18.3,16.6,30.07,WSW,258,0.0,0.0,93,0.00,,CLR,0.00,VWS V14.01,2013-02-04 11:05:00,
2013-02-04 06:10:00,18.5,16.8,30.07,WSW,258,0.0,1.0,93,0.00,,CLR,0.00,VWS V14.01,2013-02-04 11:10:00,
2013-02-04 06:15:00,18.6,16.9,30.07,WSW,258,0.0,1.0,93,0.00,,CLR,0.00,VWS V14.01,2013-02-04 11:15:00,
2013-02-04 06:21:00,18.7,17.0,30.07,WSW,258,0.0,1.0,93,0.00,,CLR,0.00,VWS V14.01,2013-02-04 11:21:00,
2013-02-04 06:26:00,18.8,17.1,30.07,WSW,258,0.0,1.0,93,0.00,,CLR,0.00,VWS V14.01,2013-02-04 11:26:00,
2013-02-04 06:31:00,18.9,17.2,30.07,WSW,258,0.0,1.0,93,0.00,,CLR,0.00,VWS V14.01,2013-02-04 11:31:00,
2013-02-04 06:36:00,19.1,17.4,30.06,WSW,258,1.0,2.0,93,0.00,,CLR,0.00,VWS V14.01,2013-02-04 11:36:00,
2013-02-04 06:41:00,19.2,17.5,30.06,WSW,258,0.0,2.0,93,0.00,,CLR,0.00,VWS V14.01,2013-02-04 11:41:00,
2013-02-04 06:46:00,19.4,17.7,30.05,WSW,257,0.0,2.0,93,0.00,,CLR,0.00,VWS V14.01,2013-02-04 11:46:00,
2013-02-04 06:52:00,19.6,17.9,30.05,WSW,257,1.0,2.0,93,0.00,,CLR,0.00,VWS V14.01,2013-02-04 11:52:00,
2013-02-04 06:57:00,19.7,18.0,30.05,WSW,258,1.0,2.0,93,0.00,,CLR,0.00,VWS V14.01,2013-02-04 11:57:00,
2013-02-04 07:02:00,19.8,18.1,30.04,WSW,242,2.0,3.0,93,0.00,,CLR,0.00,VWS V14.01,2013-02-04 12:02:00,
2013-02-04 07:07:00,19.9,18.0,30.04,WSW,240,0.0,3.0,92,0.00,,CLR,0.00,VWS V14.01,2013-02-04 12:07:00,
2013-02-04 07:12:00,20.0,18.0,30.03,SW,225,2.0,4.0,92,0.00,,CLR,0.00,VWS V14.01,2013-02-04 12:12:00,
2013-02-04 07:17:00,20.1,18.1,30.03,SSW,211,0.0,4.0,92,0.00,,CLR,0.00,VWS V14.01,2013-02-04 12:17:00,
2013-02-04 07:22:00,20.3,18.4,30.03,SSW,203,1.0,4.0,92,0.00,,CLR,0.00,VWS V14.01,2013-02-04 12:22:00,
2013-02-04 07:27:00,20.4,18.2,30.03,SSW,201,2.0,4.0,91,0.00,,CLR,0.00,VWS V14.01,2013-02-04 12:27:00,
2013-02-04 07:32:00,20.6,18.4,30.03,SSW,201,0.0,2.0,91,0.00,,CLR,0.00,VWS V14.01,2013-02-04 12:32:00,
2013-02-04 07:37:00,20.8,18.6,30.02,South,180,1.0,5.0,91,0.00,,CLR,0.00,VWS V14.01,2013-02-04 12:37:00,
2013-02-04 07:43:00,20.9,18.4,30.02,SSE,168,3.0,5.0,90,0.00,,CLR,0.00,VWS V14.01,2013-02-04 12:43:00,
2013-02-04 07:48:00,21.0,18.5,30.02,South,175,2.0,5.0,90,0.00,,CLR,0.00,VWS V14.01,2013-02-04 12:48:00,
2013-02-04 07:53:00,21.2,18.5,30.02,South,174,1.0,5.0,89,0.00,,CLR,0.00,VWS V14.01,2013-02-04 12:53:00,
2013-02-04 07:58:00,21.3,18.6,30.02,SSW,213,3.0,5.0,89,0.00,,CLR,0.00,VWS V14.01,2013-02-04 12:58:00,
2013-02-04 08:03:00,21.5,18.8,30.02,South,169,0.0,5.0,89,0.00,,CLR,0.00,VWS V14.01,2013-02-04 13:03:00,
2013-02-04 08:08:00,21.7,19.0,30.01,South,169,0.0,5.0,89,0.00,,CLR,0.00,VWS V14.01,2013-02-04 13:08:00,
2013-02-04 08:13:00,21.9,18.9,30.01,South,173,0.0,5.0,88,0.00,,CLR,0.00,VWS V14.01,2013-02-04 13:13:00,
2013-02-04 08:18:00,22.1,19.1,30.00,SW,224,3.0,5.0,88,0.00,,CLR,0.00,VWS V14.01,2013-02-04 13:18:00,
2013-02-04 08:23:00,22.2,19.2,30.00,SSE,164,4.0,7.0,88,0.00,,CLR,0.00,VWS V14.01,2013-02-04 13:23:00,
2013-02-04 08:28:00,22.4,19.1,30.00,South,174,0.0,7.0,87,0.00,,CLR,0.00,VWS V14.01,2013-02-04 13:28:00,
2013-02-04 08:34:00,22.4,19.1,30.00,SW,221,2.0,7.0,87,0.00,,CLR,0.00,VWS V14.01,2013-02-04 13:34:00,
2013-02-04 08:39:00,22.6,19.3,30.00,South,181,1.0,7.0,87,0.00,,CLR,0.00,VWS V14.01,2013-02-04 13:39:00,
2013-02-04 08:44:00,22.7,19.4,30.00,SSW,199,1.0,7.0,87,0.00,,CLR,0.00,VWS V14.01,2013-02-04 13:44:00,
2013-02-04 08:49:00,22.8,19.5,30.00,SSW,213,1.0,7.0,87,0.00,,CLR,0.00,VWS V14.01,2013-02-04 13:49:00,
2013-02-04 08:54:00,22.9,19.6,30.00,SSE,167,1.0,7.0,87,0.00,,CLR,0.00,VWS V14.01,2013-02-04 13:54:00,
2013-02-04 08:59:00,23.1,19.5,30.00,South,174,1.0,7.0,86,0.00,,CLR,0.00,VWS V14.01,2013-02-04 13:59:00,
2013-02-04 09:04:00,23.2,19.6,30.00,SSW,197,1.0,8.0,86,0.00,,CLR,0.00,VWS V14.01,2013-02-04 14:04:00,
2013-02-04 09:09:00,23.4,19.6,30.00,SSE,162,2.0,8.0,85,0.00,,CLR,0.00,VWS V14.01,2013-02-04 14:09:00,
2013-02-04 09:14:00,23.5,19.7,30.00,South,178,2.0,8.0,85,0.00,,CLR,0.00,VWS V14.01,2013-02-04 14:14:00,
2013-02-04 09:19:00,23.6,19.8,30.00,SSE,153,5.0,8.0,85,0.00,,CLR,0.00,VWS V14.01,2013-02-04 14:19:00,
2013-02-04 09:24:00,23.8,20.0,30.00,SSE,159,1.0,8.0,85,0.00,,CLR,0.00,VWS V14.01,2013-02-04 14:24:00,
2013-02-04 09:29:00,24.0,19.9,29.99,South,181,2.0,8.0,84,0.00,,CLR,0.00,VWS V14.01,2013-02-04 14:29:00,
2013-02-04 09:35:00,24.1,20.0,29.99,SSE,158,5.0,7.0,84,0.00,,CLR,0.00,VWS V14.01,2013-02-04 14:35:00,
2013-02-04 09:40:00,24.2,20.1,29.99,SSW,192,3.0,7.0,84,0.00,,CLR,0.00,VWS V14.01,2013-02-04 14:40:00,
2013-02-04 09:45:00,24.5,20.1,29.99,SSE,163,3.0,7.0,83,0.00,,CLR,0.00,VWS V14.01,2013-02-04 14:45:00,
2013-02-04 09:50:00,24.7,20.3,29.98,SSE,165,3.0,7.0,83,0.00,,CLR,0.00,VWS V14.01,2013-02-04 14:50:00,
2013-02-04 09:55:00,24.9,20.2,29.98,SSE,163,2.0,7.0,82,0.00,,CLR,0.00,VWS V14.01,2013-02-04 14:55:00,
2013-02-04 10:00:00,25.1,20.4,29.98,SSW,195,2.0,7.0,82,0.00,,CLR,0.00,VWS V14.01,2013-02-04 15:00:00,
2013-02-04 10:05:00,25.2,20.2,29.98,SSW,206,3.0,8.0,81,0.00,,CLR,0.00,VWS V14.01,2013-02-04 15:05:00,
2013-02-04 10:10:00,25.4,20.1,29.98,SSW,209,3.0,8.0,80,0.00,,CLR,0.00,VWS V14.01,2013-02-04 15:10:00,
2013-02-04 10:15:00,25.7,20.4,29.98,SSE,157,5.0,8.0,80,0.00,,CLR,0.00,VWS V14.01,2013-02-04 15:15:00,
2013-02-04 10:20:00,25.9,20.6,29.97,SSE,161,5.0,8.0,80,0.00,,CLR,0.00,VWS V14.01,2013-02-04 15:20:00,
2013-02-04 10:26:00,26.0,20.1,29.97,South,176,3.0,8.0,78,0.00,,CLR,0.00,VWS V14.01,2013-02-04 15:26:00,
2013-02-04 10:31:00,26.0,19.8,29.97,SSE,162,2.0,3.0,77,0.00,,CLR,0.00,VWS V14.01,2013-02-04 15:31:00,
2013-02-04 10:36:00,26.0,19.5,29.96,South,179,5.0,11.0,76,0.00,,CLR,0.00,VWS V14.01,2013-02-04 15:36:00,
2013-02-04 10:41:00,26.0,19.8,29.96,South,182,2.0,11.0,77,0.00,,CLR,0.00,VWS V14.01,2013-02-04 15:41:00,
2013-02-04 10:46:00,26.1,19.9,29.95,SW,219,2.0,11.0,77,0.00,,CLR,0.00,VWS V14.01,2013-02-04 15:46:00,
2013-02-04 10:51:00,26.3,19.8,29.95,SSW,210,4.0,11.0,76,0.00,,CLR,0.00,VWS V14.01,2013-02-04 15:51:00,
2013-02-04 10:56:00,26.5,20.0,29.95,SSE,168,4.0,11.0,76,0.00,,CLR,0.00,VWS V14.01,2013-02-04 15:56:00,
2013-02-04 11:01:00,26.6,20.1,29.95,SSE,154,5.0,11.0,76,0.00,,CLR,0.00,VWS V14.01,2013-02-04 16:01:00,
2013-02-04 11:06:00,26.8,20.3,29.95,South,171,4.0,11.0,76,0.00,,CLR,0.00,VWS V14.01,2013-02-04 16:06:00,
2013-02-04 11:11:00,27.1,20.9,29.95,SSE,165,4.0,11.0,77,0.00,,CLR,0.00,VWS V14.01,2013-02-04 16:11:00,
2013-02-04 11:16:00,27.3,20.8,29.94,South,178,5.0,11.0,76,0.00,,CLR,0.00,VWS V14.01,2013-02-04 16:16:00,
2013-02-04 11:21:00,27.4,20.8,29.94,South,177,2.0,11.0,76,0.00,,CLR,0.00,VWS V14.01,2013-02-04 16:21:00,
2013-02-04 11:27:00,27.6,21.4,29.94,South,185,3.0,11.0,77,0.00,,CLR,0.00,VWS V14.01,2013-02-04 16:27:00,
2013-02-04 11:32:00,27.8,21.2,29.94,SW,217,4.0,7.0,76,0.00,,CLR,0.00,VWS V14.01,2013-02-04 16:32:00,
2013-02-04 11:37:00,27.8,21.2,29.93,SSW,205,6.0,7.0,76,0.00,,CLR,0.00,VWS V14.01,2013-02-04 16:37:00,
2013-02-04 11:42:00,27.9,21.6,29.93,South,175,2.0,7.0,77,0.00,,CLR,0.00,VWS V14.01,2013-02-04 16:42:00,
2013-02-04 11:47:00,28.0,21.7,29.93,SSE,167,3.0,7.0,77,0.00,,CLR,0.00,VWS V14.01,2013-02-04 16:47:00,
2013-02-04 11:52:00,28.3,21.7,29.92,South,169,4.0,7.0,76,0.00,,CLR,0.00,VWS V14.01,2013-02-04 16:52:00,
2013-02-04 11:57:00,28.7,22.1,29.93,SSE,148,4.0,7.0,76,0.00,,CLR,0.00,VWS V14.01,2013-02-04 16:57:00,
2013-02-04 12:02:00,29.0,22.4,29.93,SSW,207,3.0,5.0,76,0.00,,CLR,0.00,VWS V14.01,2013-02-04 17:02:00,
2013-02-04 12:07:00,29.3,22.4,29.93,South,175,3.0,8.0,75,0.00,,CLR,0.00,VWS V14.01,2013-02-04 17:07:00,
2013-02-04 12:12:00,29.4,22.5,29.92,South,180,4.0,8.0,75,0.00,,CLR,0.00,VWS V14.01,2013-02-04 17:12:00,
2013-02-04 12:17:00,29.6,22.4,29.92,SSE,163,2.0,8.0,74,0.00,,CLR,0.00,VWS V14.01,2013-02-04 17:17:00,
2013-02-04 12:23:00,29.7,22.4,29.92,WSW,248,2.0,8.0,74,0.00,,CLR,0.00,VWS V14.01,2013-02-04 17:23:00,
2013-02-04 12:28:00,29.7,22.4,29.92,SSW,193,3.0,8.0,74,0.00,,CLR,0.00,VWS V14.01,2013-02-04 17:28:00,
2013-02-04 12:33:00,29.8,22.5,29.91,SSE,166,3.0,6.0,74,0.00,,CLR,0.00,VWS V14.01,2013-02-04 17:33:00,
2013-02-04 12:38:00,29.9,23.3,29.90,SSW,200,3.0,6.0,76,0.00,,CLR,0.00,VWS V14.01,2013-02-04 17:38:00,
2013-02-04 12:43:00,29.8,23.5,29.90,SSW,202,2.0,8.0,77,0.00,,CLR,0.00,VWS V14.01,2013-02-04 17:43:00,
2013-02-04 12:48:00,29.7,24.0,29.90,South,187,2.0,8.0,79,0.00,,CLR,0.00,VWS V14.01,2013-02-04 17:48:00,
2013-02-04 12:53:00,29.7,23.7,29.89,SSW,210,6.0,8.0,78,0.00,,CLR,0.00,VWS V14.01,2013-02-04 17:53:00,
2013-02-04 12:58:00,29.8,24.1,29.88,South,181,3.0,8.0,79,0.00,,CLR,0.00,VWS V14.01,2013-02-04 17:58:00,
2013-02-04 13:03:00,30.0,24.0,29.87,SSE,161,2.0,7.0,78,0.00,,CLR,0.00,VWS V14.01,2013-02-04 18:03:00,
2013-02-04 13:08:00,30.1,23.8,29.88,SSE,155,4.0,7.0,77,0.00,,CLR,0.00,VWS V14.01,2013-02-04 18:08:00,
2013-02-04 13:13:00,30.2,23.9,29.87,SSE,149,6.0,8.0,77,0.00,,CLR,0.00,VWS V14.01,2013-02-04 18:13:00,
2013-02-04 13:18:00,30.3,24.0,29.87,South,181,1.0,8.0,77,0.00,,CLR,0.00,VWS V14.01,2013-02-04 18:18:00,
2013-02-04 13:24:00,30.5,24.2,29.87,South,169,2.0,8.0,77,0.00,,CLR,0.00,VWS V14.01,2013-02-04 18:24:00,
2013-02-04 13:29:00,30.7,23.7,29.86,SW,225,2.0,8.0,75,0.00,,CLR,0.00,VWS V14.01,2013-02-04 18:29:00,
2013-02-04 13:34:00,31.1,24.1,29.87,SSW,211,5.0,5.0,75,0.00,,FEW180,0.00,VWS V14.01,2013-02-04 18:34:00,
2013-02-04 13:39:00,31.4,24.1,29.87,South,188,4.0,6.0,74,0.00,,FEW180,0.00,VWS V14.01,2013-02-04 18:39:00,
2013-02-04 13:44:00,31.5,24.2,29.87,SSE,168,3.0,6.0,74,0.00,,FEW180,0.00,VWS V14.01,2013-02-04 18:44:00,
2013-02-04 13:49:00,31.6,24.3,29.86,South,185,2.0,6.0,74,0.00,,FEW180,0.00,VWS V14.01,2013-02-04 18:49:00,
2013-02-04 13:54:00,31.5,24.2,29.86,SSW,201,0.0,6.0,74,0.00,,FEW180,0.00,VWS V14.01,2013-02-04 18:54:00,
2013-02-04 13:59:00,31.7,24.7,29.87,NW,319,0.0,6.0,75,0.00,,FEW180,0.00,VWS V14.01,2013-02-04 18:59:00,
2013-02-04 14:04:00,32.0,24.3,29.87,SSW,208,1.0,4.0,73,0.00,,FEW180,0.00,VWS V14.01,2013-02-04 19:04:00,
2013-02-04 14:09:00,32.2,24.5,29.87,SSW,207,2.0,4.0,73,0.00,,FEW180,0.00,VWS V14.01,2013-02-04 19:09:00,
2013-02-04 14:14:00,32.3,24.3,29.87,SSW,208,2.0,4.0,72,0.00,,FEW180,0.00,VWS V14.01,2013-02-04 19:14:00,
2013-02-04 14:20:00,32.4,24.4,29.87,SSW,208,2.0,4.0,72,0.00,,FEW180,0.00,VWS V14.01,2013-02-04 19:20:00,
2013-02-04 14:25:00,32.4,24.4,29.87,SSW,208,0.0,4.0,72,0.00,,FEW180,0.00,VWS V14.01,2013-02-04 19:25:00,
2013-02-04 14:30:00,32.4,24.4,29.86,SSW,208,1.0,5.0,72,0.00,,FEW180,0.00,VWS V14.01,2013-02-04 19:30:00,
2013-02-04 14:35:00,32.2,24.2,29.86,SW,218,4.0,4.0,72,0.00,,FEW180,0.00,VWS V14.01,2013-02-04 19:35:00,
2013-02-04 14:40:00,32.0,24.3,29.87,SW,217,0.0,5.0,73,0.00,,FEW180,0.00,VWS V14.01,2013-02-04 19:40:00,
2013-02-04 14:45:00,32.0,24.3,29.86,SW,214,1.0,5.0,73,0.00,,FEW180,0.00,VWS V14.01,2013-02-04 19:45:00,
2013-02-04 14:50:00,31.9,24.2,29.86,SW,214,1.0,5.0,73,0.00,,BKN190,0.00,VWS V14.01,2013-02-04 19:50:00,
2013-02-04 14:55:00,31.8,24.8,29.86,SSW,211,2.0,5.0,75,0.00,,BKN190,0.00,VWS V14.01,2013-02-04 19:55:00,
2013-02-04 15:00:00,31.7,25.0,29.86,South,181,2.0,5.0,76,0.00,,BKN190,0.00,VWS V14.01,2013-02-04 20:00:00,
2013-02-04 15:05:00,31.3,25.6,29.86,SW,216,1.0,5.0,79,0.00,,BKN190,0.00,VWS V14.01,2013-02-04 20:05:00,
2013-02-04 15:10:00,30.8,26.0,29.86,SSW,194,2.0,5.0,82,0.00,,BKN190,0.00,VWS V14.01,2013-02-04 20:10:00,
2013-02-04 15:16:00,30.4,26.1,29.86,SSW,198,2.0,5.0,84,0.00,,BKN190,0.00,VWS V14.01,2013-02-04 20:16:00,
2013-02-04 15:21:00,30.2,26.5,29.86,South,180,2.0,5.0,86,0.00,,BKN190,0.00,VWS V14.01,2013-02-04 20:21:00,
2013-02-04 15:26:00,30.1,26.7,29.86,SSW,196,2.0,5.0,87,0.00,,BKN190,0.00,VWS V14.01,2013-02-04 20:26:00,
2013-02-04 15:31:00,29.8,26.7,29.86,SW,218,0.0,2.0,88,0.00,,BKN190,0.00,VWS V14.01,2013-02-04 20:31:00,
2013-02-04 15:36:00,29.7,26.9,29.85,SSW,202,1.0,3.0,89,0.00,,BKN190,0.00,VWS V14.01,2013-02-04 20:36:00,
2013-02-04 15:41:00,29.6,27.0,29.85,South,175,1.0,7.0,90,0.00,,BKN190,0.00,VWS V14.01,2013-02-04 20:41:00,
2013-02-04 15:46:00,29.4,27.1,29.85,SSW,197,2.0,7.0,91,0.00,,SCT190,0.00,VWS V14.01,2013-02-04 20:46:00,
2013-02-04 15:51:00,29.4,27.1,29.85,South,190,2.0,7.0,91,0.00,,SCT190,0.00,VWS V14.01,2013-02-04 20:51:00,
2013-02-04 15:57:00,29.3,27.3,29.84,SSE,168,3.0,7.0,92,0.00,,SCT190,0.00,VWS V14.01,2013-02-04 20:57:00,
2013-02-04 16:02:00,29.3,27.3,29.84,South,174,1.0,3.0,92,0.00,,SCT190,0.00,VWS V14.01,2013-02-04 21:02:00,
2013-02-04 16:07:00,29.3,27.3,29.84,South,188,1.0,3.0,92,0.00,,SCT190,0.00,VWS V14.01,2013-02-04 21:07:00,
2013-02-04 16:12:00,29.4,27.6,29.84,SW,217,0.0,4.0,93,0.00,,SCT190,0.00,VWS V14.01,2013-02-04 21:12:00,
2013-02-04 16:17:00,29.5,27.7,29.83,SSW,193,1.0,4.0,93,0.00,,SCT190,0.00,VWS V14.01,2013-02-04 21:17:00,
2013-02-04 16:22:00,29.7,27.9,29.83,SSW,193,1.0,4.0,93,0.00,,SCT190,0.00,VWS V14.01,2013-02-04 21:22:00,
2013-02-04 16:27:00,29.8,28.0,29.83,SSW,196,0.0,4.0,93,0.00,,SCT190,0.00,VWS V14.01,2013-02-04 21:27:00,
2013-02-04 16:32:00,29.8,28.0,29.83,SSE,166,3.0,4.0,93,0.00,,SCT190,0.00,VWS V14.01,2013-02-04 21:32:00,
2013-02-04 16:37:00,29.9,28.1,29.83,SW,217,1.0,4.0,93,0.00,,SCT190,0.00,VWS V14.01,2013-02-04 21:37:00,
2013-02-04 16:43:00,30.1,28.3,29.83,SSE,155,3.0,5.0,93,0.00,,SCT190,0.00,VWS V14.01,2013-02-04 21:43:00,
2013-02-04 16:48:00,30.1,28.6,29.83,SSW,208,1.0,5.0,94,0.00,,FEW200,0.00,VWS V14.01,2013-02-04 21:48:00,
2013-02-04 16:53:00,30.3,28.8,29.83,SSW,195,1.0,5.0,94,0.00,,FEW200,0.00,VWS V14.01,2013-02-04 21:53:00,
2013-02-04 16:58:00,30.4,28.9,29.83,South,169,1.0,5.0,94,0.00,,FEW200,0.00,VWS V14.01,2013-02-04 21:58:00,
2013-02-04 17:03:00,30.6,29.1,29.83,SSW,199,0.0,3.0,94,0.00,,FEW200,0.00,VWS V14.01,2013-02-04 22:03:00,
2013-02-04 17:08:00,30.7,29.2,29.83,South,170,2.0,4.0,94,0.00,,FEW200,0.00,VWS V14.01,2013-02-04 22:08:00,
2013-02-04 17:13:00,30.8,29.3,29.83,SSW,209,1.0,4.0,94,0.00,,FEW200,0.00,VWS V14.01,2013-02-04 22:13:00,
2013-02-04 17:18:00,30.9,29.4,29.83,South,184,1.0,4.0,94,0.00,,FEW200,0.00,VWS V14.01,2013-02-04 22:18:00,
2013-02-04 17:23:00,30.9,29.4,29.84,South,188,0.0,4.0,94,0.00,,FEW200,0.00,VWS V14.01,2013-02-04 22:23:00,
2013-02-04 17:29:00,31.0,29.5,29.84,South,188,1.0,4.0,94,0.00,,FEW200,0.00,VWS V14.01,2013-02-04 22:29:00,
2013-02-04 17:34:00,31.0,29.5,29.84,South,188,0.0,1.0,94,0.00,,FEW200,0.00,VWS V14.01,2013-02-04 22:34:00,
2013-02-04 17:39:00,31.0,29.5,29.84,South,188,0.0,1.0,94,0.00,,FEW200,0.00,VWS V14.01,2013-02-04 22:39:00,
2013-02-04 17:44:00,31.0,29.5,29.84,South,188,0.0,1.0,94,0.00,,FEW200,0.00,VWS V14.01,2013-02-04 22:44:00,
2013-02-04 17:49:00,31.0,29.5,29.84,South,188,0.0,1.0,94,0.00,,CLR,0.00,VWS V14.01,2013-02-04 22:49:00,
2013-02-04 17:54:00,31.0,29.5,29.84,South,188,0.0,1.0,94,0.00,,CLR,0.00,VWS V14.01,2013-02-04 22:54:00,
2013-02-04 17:59:00,31.1,29.8,29.84,South,188,0.0,1.0,95,0.00,,CLR,0.00,VWS V14.01,2013-02-04 22:59:00,
2013-02-04 18:04:00,31.2,29.9,29.85,South,188,0.0,2.0,95,0.00,,CLR,0.00,VWS V14.01,2013-02-04 23:04:00,
2013-02-04 18:10:00,31.2,29.9,29.84,South,188,0.0,2.0,95,0.00,,CLR,0.00,VWS V14.01,2013-02-04 23:10:00,
2013-02-04 18:15:00,31.3,30.0,29.84,South,188,0.0,2.0,95,0.00,,CLR,0.00,VWS V14.01,2013-02-04 23:15:00,
2013-02-04 18:20:00,31.4,30.1,29.85,South,188,0.0,2.0,95,0.00,,CLR,0.00,VWS V14.01,2013-02-04 23:20:00,
2013-02-04 18:25:00,31.5,30.2,29.85,South,188,0.0,2.0,95,0.00,,CLR,0.00,VWS V14.01,2013-02-04 23:25:00,
2013-02-04 18:30:00,31.6,30.3,29.84,South,188,0.0,2.0,95,0.00,,CLR,0.00,VWS V14.01,2013-02-04 23:30:00,
2013-02-04 18:35:00,31.6,30.3,29.85,South,188,1.0,1.0,95,0.00,,CLR,0.00,VWS V14.01,2013-02-04 23:35:00,
2013-02-04 18:40:00,31.7,30.4,29.85,South,188,0.0,1.0,95,0.00,,CLR,0.00,VWS V14.01,2013-02-04 23:40:00,
2013-02-04 18:45:00,31.7,30.4,29.85,South,188,0.0,1.0,95,0.00,,CLR,0.00,VWS V14.01,2013-02-04 23:45:00,
2013-02-04 18:50:00,31.7,30.4,29.85,South,188,0.0,1.0,95,0.00,,OVC075,0.00,VWS V14.01,2013-02-04 23:50:00,
2013-02-04 18:56:00,31.7,30.4,29.85,South,188,0.0,1.0,95,0.00,,OVC075,0.00,VWS V14.01,2013-02-04 23:56:00,
2013-02-04 19:01:00,31.7,30.4,29.85,South,188,0.0,0.0,95,0.00,,OVC075,0.00,VWS V14.01,2013-02-05 00:01:00,
2013-02-04 19:06:00,31.7,30.4,29.85,South,188,0.0,0.0,95,0.00,,OVC075,0.00,VWS V14.01,2013-02-05 00:06:00,
2013-02-04 19:11:00,31.7,30.4,29.85,South,188,0.0,0.0,95,0.00,,OVC075,0.00,VWS V14.01,2013-02-05 00:11:00,
2013-02-04 19:16:00,31.7,30.4,29.85,South,188,0.0,0.0,95,0.00,,BKN210,0.00,VWS V14.01,2013-02-05 00:16:00,
2013-02-04 19:21:00,31.8,30.5,29.85,South,188,0.0,1.0,95,0.00,,BKN210,0.00,VWS V14.01,2013-02-05 00:21:00,
2013-02-04 19:26:00,31.8,30.8,29.85,South,188,0.0,1.0,96,0.00,,BKN210,0.00,VWS V14.01,2013-02-05 00:26:00,
2013-02-04 19:31:00,31.8,30.5,29.85,South,188,0.0,0.0,95,0.00,,BKN210,0.00,VWS V14.01,2013-02-05 00:31:00,
2013-02-04 19:36:00,31.9,30.6,29.84,South,188,0.0,0.0,95,0.00,,BKN210,0.00,VWS V14.01,2013-02-05 00:36:00,
2013-02-04 19:41:00,31.9,30.6,29.84,South,188,0.0,1.0,95,0.00,,BKN210,0.00,VWS V14.01,2013-02-05 00:41:00,
2013-02-04 19:47:00,31.9,30.6,29.84,South,188,0.0,1.0,95,0.00,,BKN210,0.00,VWS V14.01,2013-02-05 00:47:00,
2013-02-04 19:52:00,31.9,30.9,29.84,South,188,0.0,1.0,96,0.00,,BKN210,0.00,VWS V14.01,2013-02-05 00:52:00,
2013-02-04 19:57:00,32.0,31.0,29.84,South,188,0.0,1.0,96,0.00,,BKN210,0.00,VWS V14.01,2013-02-05 00:57:00,
2013-02-04 20:02:00,32.0,31.0,29.84,South,188,0.0,0.0,96,0.00,,BKN210,0.00,VWS V14.01,2013-02-05 01:02:00,
2013-02-04 20:07:00,32.0,31.0,29.84,South,188,1.0,1.0,96,0.00,,BKN210,0.00,VWS V14.01,2013-02-05 01:07:00,
2013-02-04 20:12:00,32.1,31.1,29.84,South,188,0.0,1.0,96,0.00,,BKN210,0.00,VWS V14.01,2013-02-05 01:12:00,
2013-02-04 20:17:00,32.2,31.2,29.84,SSW,192,1.0,1.0,96,0.00,,BKN210,0.00,VWS V14.01,2013-02-05 01:17:00,
2013-02-04 20:22:00,32.3,31.3,29.85,SSW,192,0.0,1.0,96,0.00,,BKN210,0.00,VWS V14.01,2013-02-05 01:22:00,
2013-02-04 20:28:00,32.3,31.3,29.85,SSW,192,1.0,1.0,96,0.00,,BKN210,0.00,VWS V14.01,2013-02-05 01:28:00,
2013-02-04 20:33:00,32.4,31.4,29.85,SSW,192,0.0,0.0,96,0.00,,BKN210,0.00,VWS V14.01,2013-02-05 01:33:00,
2013-02-04 20:38:00,32.4,31.4,29.85,SSW,192,0.0,1.0,96,0.00,,BKN210,0.00,VWS V14.01,2013-02-05 01:38:00,
2013-02-04 20:43:00,32.4,31.4,29.86,SSW,192,0.0,1.0,96,0.00,,BKN210,0.00,VWS V14.01,2013-02-05 01:43:00,
2013-02-04 20:48:00,32.3,31.3,29.86,SSW,192,0.0,1.0,96,0.00,,OVC100,0.00,VWS V14.01,2013-02-05 01:48:00,
2013-02-04 20:53:00,32.3,31.3,29.86,SSW,192,0.0,1.0,96,0.00,,OVC100,0.00,VWS V14.01,2013-02-05 01:53:00,
2013-02-04 20:58:00,32.3,31.3,29.86,SSW,192,0.0,1.0,96,0.00,,OVC100,0.00,VWS V14.01,2013-02-05 01:58:00,
2013-02-04 21:04:00,32.3,31.3,29.86,SSW,192,0.0,0.0,96,0.00,,OVC100,0.00,VWS V14.01,2013-02-05 02:04:00,
2013-02-04 21:09:00,32.3,31.3,29.86,SSW,192,0.0,0.0,96,0.00,,OVC100,0.00,VWS V14.01,2013-02-05 02:09:00,
2013-02-04 21:14:00,32.3,31.3,29.86,SSW,192,0.0,0.0,96,0.00,,OVC100,0.00,VWS V14.01,2013-02-05 02:14:00,
2013-02-04 21:19:00,32.3,31.3,29.86,SSW,192,0.0,0.0,96,0.00,,OVC100,0.00,VWS V14.01,2013-02-05 02:19:00,
2013-02-04 21:24:00,32.3,31.3,29.86,SSW,192,0.0,0.0,96,0.00,,OVC100,0.00,VWS V14.01,2013-02-05 02:24:00,
2013-02-04 21:29:00,32.4,31.4,29.86,SSW,192,0.0,0.0,96,0.00,,OVC100,0.00,VWS V14.01,2013-02-05 02:29:00,
2013-02-04 21:34:00,32.3,31.3,29.87,SSW,192,0.0,0.0,96,0.00,,OVC100,0.00,VWS V14.01,2013-02-05 02:34:00,
2013-02-04 21:39:00,32.3,31.3,29.87,SSW,192,0.0,0.0,96,0.00,,OVC100,0.00,VWS V14.01,2013-02-05 02:39:00,
2013-02-04 21:44:00,32.3,31.3,29.87,SSW,192,0.0,0.0,96,0.00,,OVC100,0.00,VWS V14.01,2013-02-05 02:44:00,
2013-02-04 21:49:00,32.3,31.3,29.88,SSW,192,0.0,0.0,96,0.00,,BKN095,0.00,VWS V14.01,2013-02-05 02:49:00,
2013-02-04 21:55:00,32.3,31.3,29.87,SSW,192,0.0,0.0,96,0.00,,BKN095,0.00,VWS V14.01,2013-02-05 02:55:00,
2013-02-04 22:00:00,32.3,31.3,29.88,SSW,192,0.0,0.0,96,0.00,,BKN095,0.00,VWS V14.01,2013-02-05 03:00:00,
2013-02-04 22:05:00,32.3,31.3,29.88,SSW,192,0.0,0.0,96,0.00,,BKN095,0.00,VWS V14.01,2013-02-05 03:05:00,
2013-02-04 22:10:00,32.4,31.4,29.87,SSW,192,0.0,1.0,96,0.00,,BKN095,0.00,VWS V14.01,2013-02-05 03:10:00,
2013-02-04 22:15:00,32.6,31.6,29.87,SSW,192,0.0,2.0,96,0.00,,BKN095,0.00,VWS V14.01,2013-02-05 03:15:00,
2013-02-04 22:20:00,32.7,31.7,29.87,SSW,192,0.0,2.0,96,0.00,,BKN095,0.00,VWS V14.01,2013-02-05 03:20:00,
2013-02-04 22:25:00,32.6,31.6,29.87,SSW,192,0.0,2.0,96,0.00,,BKN095,0.00,VWS V14.01,2013-02-05 03:25:00,
2013-02-04 22:30:00,32.6,31.6,29.87,SSW,192,0.0,2.0,96,0.00,,BKN095,0.00,VWS V14.01,2013-02-05 03:30:00,
2013-02-04 22:35:00,32.6,31.6,29.87,SSW,192,0.0,0.0,96,0.00,,BKN095,0.00,VWS V14.01,2013-02-05 03:35:00,
2013-02-04 22:41:00,32.6,31.6,29.87,SSW,192,0.0,1.0,96,0.00,,BKN095,0.00,VWS V14.01,2013-02-05 03:41:00,
2013-02-04 22:46:00,32.7,31.7,29.87,SSW,192,0.0,1.0,96,0.00,,OVC036,0.00,VWS V14.01,2013-02-05 03:46:00,
2013-02-04 22:51:00,32.7,31.7,29.86,SSW,192,0.0,1.0,96,0.00,,OVC036,0.00,VWS V14.01,2013-02-05 03:51:00,
2013-02-04 22:56:00,32.7,31.7,29.86,SSW,192,0.0,1.0,96,0.00,,OVC036,0.00,VWS V14.01,2013-02-05 03:56:00,
2013-02-04 23:01:00,32.8,32.0,29.86,SSW,192,0.0,0.0,97,0.00,,OVC036,0.00,VWS V14.01,2013-02-05 04:01:00,
2013-02-04 23:06:00,32.8,32.0,29.86,SSW,192,0.0,1.0,97,0.00,,OVC036,0.00,VWS V14.01,2013-02-05 04:06:00,
2013-02-04 23:11:00,32.8,32.0,29.86,SSW,192,0.0,1.0,97,0.00,,OVC036,0.00,VWS V14.01,2013-02-05 04:11:00,
2013-02-04 23:17:00,32.8,32.0,29.86,SSW,192,0.0,1.0,97,0.00,,OVC036,0.00,VWS V14.01,2013-02-05 04:17:00,
2013-02-04 23:22:00,32.8,31.8,29.86,SSW,192,0.0,1.0,96,0.00,,OVC036,0.00,VWS V14.01,2013-02-05 04:22:00,
2013-02-04 23:27:00,32.7,31.7,29.86,SSW,192,0.0,1.0,96,0.00,,OVC036,0.00,VWS V14.01,2013-02-05 04:27:00,
2013-02-04 23:32:00,32.6,31.6,29.86,SSW,192,0.0,0.0,96,0.00,,OVC036,0.00,VWS V14.01,2013-02-05 04:32:00,
2013-02-04 23:37:00,32.5,31.5,29.86,SSW,192,0.0,0.0,96,0.00,,OVC036,0.00,VWS V14.01,2013-02-05 04:37:00,
2013-02-04 23:42:00,32.4,31.4,29.86,SSW,192,0.0,0.0,96,0.00,,OVC036,0.00,VWS V14.01,2013-02-05 04:42:00,
2013-02-04 23:47:00,32.4,31.4,29.85,SSW,192,0.0,0.0,96,0.00,,OVC045,0.00,VWS V14.01,2013-02-05 04:47:00,
2013-02-04 23:52:00,32.5,31.5,29.85,SSW,192,0.0,0.0,96,0.00,,OVC045,0.00,VWS V14.01,2013-02-05 04:52:00,
2013-02-04 23:57:00,32.4,31.4,29.86,SSW,192,0.0,0.0,96,0.00,,OVC045,0.00,VWS V14.01,2013-02-05 04:57:00,